Fryeburg, ME

9:09 PM EDT on April 20, 2018 (GMT -0400)
Eastern Slopes Regional

Weather History for KIZG - May, 2014

Change the Weather History Date:

Monday, May 26, 2014

  Actual Average Record
Temperature  
Mean Temperature 63 °F -  
Max Temperature 72 °F 68 °F 89 °F (2015)
Min Temperature 54 °F 41 °F 34 °F (1997)
Degree Days  
Heating Degree Days 2    
Growing Degree Days 13 (Base 50)    
Moisture  
Dew Point 54 °F    
Average Humidity 69    
Maximum Humidity 97    
Minimum Humidity 53    
Precipitation  
Precipitation 0.01 in - - ()
Sea Level Pressure  
Sea Level Pressure 29.83 in    
Wind  
Wind Speed 3 mph (West)    
Max Wind Speed 12 mph    
Max Gust Speed 20 mph    
Visibility 10 miles    
Events Rain    
Averages and records for this station are not official NWS values.
T = Trace of Precipitation, MM = Missing Value Source: NWS Daily Summary

Daily Weather History Graph

Daily Weather History Graph

Search for Another Location

Airport or City:

Astronomy

May. 26, 2014 Rise Set
Actual Time 5:07 AM EDT 8:14 PM EDT
Civil Twilight 4:33 AM EDT 8:49 PM EDT
Nautical Twilight 3:48 AM EDT 9:34 PM EDT
Astronomical Twilight 2:55 AM EDT 10:27 PM EDT
Moon 3:53 AM EDT (5/26) 6:09 PM EDT (5/26)
Length of Visible Light 16h 16m
Length of Day
15h 06m
Waning Crescent, 5% of the Moon is Illuminated
May 26
Waning Crescent
May 28
New
Jun 5
First Quarter
Jun 13
Full
Jun 19
Last Quarter

Hourly Weather History & Observations

Time (EDT) Temp. Dew Point Humidity Pressure Visibility Wind Dir Wind Speed Gust Speed Precip Events Conditions
12:54 AM 54.0 °F 53.1 °F 97% 29.95 in 10.0 mi Calm Calm - 0.00 in Rain Light Rain
1:54 AM 54.0 °F 52.0 °F 93% 29.93 in 10.0 mi Calm Calm - 0.00 in   Overcast
2:54 AM 54.0 °F 53.1 °F 97% 29.90 in 10.0 mi Calm Calm - N/A   Overcast
3:54 AM 54.0 °F 52.0 °F 93% 29.88 in 10.0 mi ESE 3.5 mph - N/A   Mostly Cloudy
4:54 AM 54.0 °F 53.1 °F 97% 29.87 in 10.0 mi West 3.5 mph - N/A   Clear
5:54 AM 59.0 °F 52.0 °F 78% 29.86 in 10.0 mi WSW 5.8 mph - N/A   Partly Cloudy
6:54 AM 60.1 °F 51.1 °F 72% 29.87 in 10.0 mi Variable 3.5 mph - 0.00 in   Overcast
7:54 AM 64.0 °F 53.1 °F 67% 29.87 in 10.0 mi Variable 5.8 mph - 0.00 in   Scattered Clouds
8:54 AM 66.9 °F 54.0 °F 63% 29.86 in 10.0 mi Variable 5.8 mph - N/A   Scattered Clouds
9:54 AM 68.0 °F 53.1 °F 59% 29.85 in 10.0 mi Variable 4.6 mph - N/A   Clear
10:54 AM 69.1 °F 54.0 °F 58% 29.84 in 10.0 mi West 9.2 mph 16.1 mph N/A   Scattered Clouds
11:54 AM 71.1 °F 53.1 °F 53% 29.84 in 10.0 mi NW 11.5 mph 17.3 mph N/A   Overcast
12:54 PM 69.1 °F 53.1 °F 57% 29.83 in 10.0 mi Calm Calm - N/A   Overcast
1:54 PM 70.0 °F 55.0 °F 59% 29.81 in 10.0 mi Calm Calm - 0.00 in   Overcast
2:54 PM 71.1 °F 57.0 °F 61% 29.79 in 10.0 mi Calm Calm - 0.00 in   Mostly Cloudy
3:54 PM 72.0 °F 55.0 °F 55% 29.77 in 10.0 mi Variable 3.5 mph - N/A   Mostly Cloudy
4:54 PM 71.1 °F 55.0 °F 57% 29.76 in 10.0 mi West 6.9 mph - 0.00 in   Overcast
5:54 PM 71.1 °F 55.0 °F 57% 29.75 in 10.0 mi Variable 4.6 mph - N/A   Clear
6:54 PM 69.1 °F 55.0 °F 61% 29.77 in 10.0 mi West 6.9 mph - N/A   Overcast
7:54 PM 69.1 °F 54.0 °F 58% 29.78 in 10.0 mi West 5.8 mph 19.6 mph N/A   Mostly Cloudy
8:54 PM 68.0 °F 54.0 °F 61% 29.81 in 10.0 mi WNW 9.2 mph 17.3 mph N/A   Overcast
9:54 PM 68.0 °F 55.0 °F 63% 29.80 in 10.0 mi West 3.5 mph - N/A   Overcast
10:54 PM 64.9 °F 55.9 °F 73% 29.81 in 10.0 mi West 8.1 mph - 0.01 in Rain Light Rain
11:54 PM 64.9 °F 55.9 °F 73% 29.80 in 10.0 mi Variable 4.6 mph - 0.00 in   Overcast